Location: Unspecified
(0.0000°N, 0.0000°E)
Time: 23:23:59
(UTC+00:00)

DSAT - Pass Details

Date: 09 June 2023
Orbit: 498 x 655 km, 97.5° (Epoch: 28 September)

Event Time Altitude Azimuth Distance (km) Brightness Sun altitude
Rises 04:42:31 0° 17° (NNE) 2,984 ? -17.6°
Reaches altitude 10° 04:44:47 10° 21° (NNE) 2,070 ? -17.1°
Maximum altitude 04:49:16 61° 101° (E) 741 ? -16.1°
Drops below altitude 10° 04:53:39 10° 181° (S) 2,025 ? -15.1°
Enters shadow 04:55:40 - 184° (S) 2,846 ? -14.6°
